Tracking 20093 objects as of 14-Dec-2019
HD Live streaming from Space Station
objects crossing your sky now

FENGYUN 1C DEB

Track FENGYUN 1C DEB now!
10-day predictions


NORAD ID: 36180
Int'l Code: 1999-025DTD
Perigee: 688.2 km
Apogee: 1,020.7 km
Inclination: 98.5 °
Period: 101.9 minutes
Semi major axis: 7225 km
RCS: 0.0053 m2 (small)
Launch date: May 10, 1999
Source: People's Republic of China (PRC)
Launch site: Taiyaun Space Center, China (TSC)

Note: This is SATELLITE DEBRIS
aabbcc
Your satellite tracking list
Your tracking list is empty




NASA's NSSDC Master Catalog

Two Line Element Set (TLE):
1 36180U 99025DTD 19346.16286754 +.00000145 +00000-0 +78333-4 0  9993
2 36180 098.4620 115.3663 0230096 226.4558 131.7301 14.13525339395599
Source of the keplerian elements: AFSPC